Regional Weather Roundup
Issued by NWS

Home | Current Version | Previous Version | Graphics & Text | Print | Product List | Glossary On
Versions: 1 2 3 4 5 6 7 8 9 10 11 12 13 14 15 16 17 18 19 20 21 22 23 24 25 26 27 28 29 30 31 32 33 34 35 36 37 38 39 40 41 42 43 44 45 46 47 48 49 50
000
ASUS43 KLMK 221410
RWRKY
KENTUCKY REGIONAL WEATHER ROUNDUP
NATIONAL WEATHER SERVICE LOUISVILLE KY
1000 AM EDT SAT JUL 22 2017

NOTE "FAIR" INDICATES FEW OR NO CLOUDS BELOW 12,000 FEET
WITH NO SIGNIFICANT WEATHER AND/OR OBSTRUCTIONS TO VISIBILITY.

KYZ001>023-026-027-061>063-070>075-221500-
WESTERN AND SOUTH CENTRAL KENTUCKY

CITY           SKY/WX    TMP DP  RH WIND       PRES   REMARKS
PADUCAH        SUNNY     87  75  67 SW9       29.94R HX  96
HENDERSON      SUNNY     86  78  77 SW13      29.94R HX  98
OWENSBORO      SUNNY     86  78  77 S7        29.95R HX  98
HOPKINSVILLE   SUNNY     87  77  72 SW9       29.97R HX  98
BOWLING GREEN  SUNNY     87  77  72 SW6       29.98R HX  99
GLASGOW        SUNNY     86  74  66 W6        29.99R HX  94
$$

KYZ024-025-028>034-038-045-046-053-221500-
NORTH CENTRAL KENTUCKY

CITY           SKY/WX    TMP DP  RH WIND       PRES   REMARKS
LOUISVILLE/SDF PTSUNNY   88  75  65 SW13      29.94R HX  97
LOUISVILLE/LOU PTSUNNY   87  77  72 SW10      29.94S HX  99
FORT KNOX      MOSUNNY   85  76  73 SW8       29.95S HX  94
$$

KYZ035>037-039>044-047>052-055>060-089>105-221500-
NORTHEAST KENTUCKY

CITY           SKY/WX    TMP DP  RH WIND       PRES   REMARKS
LEXINGTON      CLOUDY    83  74  74 SW8       29.99R HAZE
COVINGTON      PTSUNNY   83  78  85 SW8       29.92S HX  93
FRANKFORT      CLOUDY    86  75  69 SW7       29.95S HX  95
$$

KYZ054-064>069-076>088-106>120-221500-
SOUTHEAST KENTUCKY

CITY           SKY/WX    TMP DP  RH WIND       PRES   REMARKS
JACKSON        SUNNY     82  73  74 CALM      30.02S
LONDON         SUNNY     84  73  69 VRB6      30.02F HX  90
SOMERSET       CLOUDY    81  72  74 S5        30.02S
MIDDLESBORO    SUNNY     79  74  83 CALM      30.04F
MONTICELLO     SUNNY     86  76  71 NW9       30.02F HX  96
$$





USA.gov is the U.S. government's official web portal to all federal, state and local government web resources and services.